Year,Month,Day,Hour,Minute,Value (Times are PST for temperature in C)
2009,04,05,00,00,7.10
2009,04,05,00,01,7.10
2009,04,05,00,02,7.00
2009,04,05,00,03,7.00
2009,04,05,00,04,7.00
2009,04,05,00,05,6.90
2009,04,05,00,06,6.90
2009,04,05,00,07,6.90
2009,04,05,00,08,6.90
2009,04,05,00,09,6.90
2009,04,05,00,10,6.90
2009,04,05,00,11,6.80
2009,04,05,00,12,6.80
2009,04,05,00,13,6.80
2009,04,05,00,14,6.80
2009,04,05,00,15,6.80
2009,04,05,00,16,6.80
2009,04,05,00,17,6.80
2009,04,05,00,18,6.80
2009,04,05,00,19,6.80
2009,04,05,00,20,6.80
2009,04,05,00,21,6.80
2009,04,05,00,22,6.80
2009,04,05,00,23,6.80
2009,04,05,00,24,6.80
2009,04,05,00,25,6.80
2009,04,05,00,26,6.80
2009,04,05,00,27,6.80
2009,04,05,00,28,6.80
2009,04,05,00,29,6.70
2009,04,05,00,30,6.70
2009,04,05,00,31,6.70
2009,04,05,00,32,6.70
2009,04,05,00,33,6.70
2009,04,05,00,34,6.70
2009,04,05,00,35,6.70
2009,04,05,00,36,6.70
2009,04,05,00,37,6.60
2009,04,05,00,38,6.60
2009,04,05,00,39,6.60
2009,04,05,00,40,6.60
2009,04,05,00,41,6.60
2009,04,05,00,42,6.60
2009,04,05,00,43,6.60
2009,04,05,00,44,6.50
2009,04,05,00,45,6.50
2009,04,05,00,46,6.50
2009,04,05,00,47,6.50
2009,04,05,00,48,6.50
2009,04,05,00,49,6.40
2009,04,05,00,50,6.40
2009,04,05,00,51,6.40
2009,04,05,00,52,6.40
2009,04,05,00,53,6.40
2009,04,05,00,54,6.30
2009,04,05,00,55,6.30
2009,04,05,00,56,6.30
2009,04,05,00,57,6.20
2009,04,05,00,58,6.20
2009,04,05,00,59,6.20
2009,04,05,01,00,6.10
2009,04,05,01,01,6.10
2009,04,05,01,02,6.00
2009,04,05,01,03,6.00
2009,04,05,01,04,5.90
2009,04,05,01,05,5.90
2009,04,05,01,06,5.90
2009,04,05,01,07,5.90
2009,04,05,01,08,6.00
2009,04,05,01,09,6.00
2009,04,05,01,10,5.90
2009,04,05,01,11,5.90
2009,04,05,01,12,5.90
2009,04,05,01,13,5.90
2009,04,05,01,14,5.80
2009,04,05,01,15,5.90
2009,04,05,01,16,5.90
2009,04,05,01,17,5.80
2009,04,05,01,18,5.80
2009,04,05,01,19,5.80
2009,04,05,01,20,5.80
2009,04,05,01,21,5.80
2009,04,05,01,22,5.80
2009,04,05,01,23,5.70
2009,04,05,01,24,5.70
2009,04,05,01,25,5.60
2009,04,05,01,26,5.60
2009,04,05,01,27,5.50
2009,04,05,01,28,5.50
2009,04,05,01,29,5.40
2009,04,05,01,30,5.30
2009,04,05,01,31,5.30
2009,04,05,01,32,5.20
2009,04,05,01,33,5.20
2009,04,05,01,34,5.20
2009,04,05,01,35,5.20
2009,04,05,01,36,5.30
2009,04,05,01,37,5.30
2009,04,05,01,38,5.40
2009,04,05,01,39,5.50
2009,04,05,01,40,5.50
2009,04,05,01,41,5.60
2009,04,05,01,42,5.60
2009,04,05,01,43,5.70
2009,04,05,01,44,5.70
2009,04,05,01,45,5.70
2009,04,05,01,46,5.70
2009,04,05,01,47,5.70
2009,04,05,01,48,5.60
2009,04,05,01,49,5.60
2009,04,05,01,50,5.60
2009,04,05,01,51,5.60
2009,04,05,01,52,5.60
2009,04,05,01,53,5.60
2009,04,05,01,54,5.60
2009,04,05,01,55,5.60
2009,04,05,01,56,5.60
2009,04,05,01,57,5.60
2009,04,05,01,58,5.60
2009,04,05,01,59,5.70
2009,04,05,02,00,5.70
2009,04,05,02,01,5.80
2009,04,05,02,02,5.80
2009,04,05,02,03,5.80
2009,04,05,02,04,5.90
2009,04,05,02,05,5.90
2009,04,05,02,06,5.90
2009,04,05,02,07,5.90
2009,04,05,02,08,5.90
2009,04,05,02,09,5.90
2009,04,05,02,10,5.90
2009,04,05,02,11,5.90
2009,04,05,02,12,5.90
2009,04,05,02,13,5.90
2009,04,05,02,14,5.90
2009,04,05,02,15,5.90
2009,04,05,02,16,5.90
2009,04,05,02,17,6.00
2009,04,05,02,18,5.90
2009,04,05,02,19,5.90
2009,04,05,02,20,5.90
2009,04,05,02,21,5.90
2009,04,05,02,22,5.90
2009,04,05,02,23,5.90
2009,04,05,02,24,5.90
2009,04,05,02,25,6.00
2009,04,05,02,26,6.00
2009,04,05,02,27,6.00
2009,04,05,02,28,6.00
2009,04,05,02,29,6.00
2009,04,05,02,30,5.90
2009,04,05,02,31,5.90
2009,04,05,02,32,5.90
2009,04,05,02,33,5.90
2009,04,05,02,34,6.00
2009,04,05,02,35,6.00
2009,04,05,02,36,6.10
2009,04,05,02,37,6.10
2009,04,05,02,38,6.10
2009,04,05,02,39,6.10
2009,04,05,02,40,6.10
2009,04,05,02,41,6.20
2009,04,05,02,42,6.20
2009,04,05,02,43,6.20
2009,04,05,02,44,6.20
2009,04,05,02,45,6.20
2009,04,05,02,46,6.20
2009,04,05,02,47,6.20
2009,04,05,02,48,6.20
2009,04,05,02,49,6.20
2009,04,05,02,50,6.20
2009,04,05,02,51,6.20
2009,04,05,02,52,6.20
2009,04,05,02,53,6.20
2009,04,05,02,54,6.20
2009,04,05,02,55,6.20
2009,04,05,02,56,6.30
2009,04,05,02,57,6.30
2009,04,05,02,58,6.30
2009,04,05,02,59,6.30
2009,04,05,03,00,6.30
2009,04,05,03,01,6.40
2009,04,05,03,02,6.40
2009,04,05,03,03,6.40
2009,04,05,03,04,6.40
2009,04,05,03,05,6.40
2009,04,05,03,06,6.40
2009,04,05,03,07,6.40
2009,04,05,03,08,6.40
2009,04,05,03,09,6.30
2009,04,05,03,10,6.30
2009,04,05,03,11,6.30
2009,04,05,03,12,6.30
2009,04,05,03,13,6.30
2009,04,05,03,14,6.30
2009,04,05,03,15,6.30
2009,04,05,03,16,6.20
2009,04,05,03,17,6.20
2009,04,05,03,18,6.20
2009,04,05,03,19,6.10
2009,04,05,03,20,6.10
2009,04,05,03,21,6.20
2009,04,05,03,22,6.20
2009,04,05,03,23,6.20
2009,04,05,03,24,6.20
2009,04,05,03,25,6.20
2009,04,05,03,26,6.20
2009,04,05,03,27,6.30
2009,04,05,03,28,6.30
2009,04,05,03,29,6.40
2009,04,05,03,30,6.40
2009,04,05,03,31,6.40
2009,04,05,03,32,6.40
2009,04,05,03,33,6.40
2009,04,05,03,34,6.30
2009,04,05,03,35,6.30
2009,04,05,03,36,6.30
2009,04,05,03,37,6.30
2009,04,05,03,38,6.20
2009,04,05,03,39,6.20
2009,04,05,03,40,6.20
2009,04,05,03,41,6.20
2009,04,05,03,42,6.20
2009,04,05,03,43,6.20
2009,04,05,03,44,6.20
2009,04,05,03,45,6.20
2009,04,05,03,46,6.20
2009,04,05,03,47,6.20
2009,04,05,03,48,6.20
2009,04,05,03,49,6.20
2009,04,05,03,50,6.20
2009,04,05,03,51,6.20
2009,04,05,03,52,6.20
2009,04,05,03,53,6.20
2009,04,05,03,54,6.20
2009,04,05,03,55,6.20
2009,04,05,03,56,6.20
2009,04,05,03,57,6.20
2009,04,05,03,58,6.30
2009,04,05,03,59,6.30
2009,04,05,04,00,6.30
2009,04,05,04,01,6.30
2009,04,05,04,02,6.30
2009,04,05,04,03,6.30
2009,04,05,04,04,6.30
2009,04,05,04,05,6.30
2009,04,05,04,06,6.20
2009,04,05,04,07,6.20
2009,04,05,04,08,6.20
2009,04,05,04,09,6.20
2009,04,05,04,10,6.20
2009,04,05,04,11,6.10
2009,04,05,04,12,6.10
2009,04,05,04,13,6.10
2009,04,05,04,14,6.10
2009,04,05,04,15,6.00
2009,04,05,04,16,6.00
2009,04,05,04,17,5.90
2009,04,05,04,18,5.90
2009,04,05,04,19,5.80
2009,04,05,04,20,5.80
2009,04,05,04,21,5.80
2009,04,05,04,22,5.80
2009,04,05,04,23,5.80
2009,04,05,04,24,5.80
2009,04,05,04,25,5.80
2009,04,05,04,26,5.80
2009,04,05,04,27,5.80
2009,04,05,04,28,5.80
2009,04,05,04,29,5.80
2009,04,05,04,30,5.80
2009,04,05,04,31,5.80
2009,04,05,04,32,5.80
2009,04,05,04,33,5.70
2009,04,05,04,34,5.70
2009,04,05,04,35,5.70
2009,04,05,04,36,5.70
2009,04,05,04,37,5.70
2009,04,05,04,38,5.60
2009,04,05,04,39,5.60
2009,04,05,04,40,5.60
2009,04,05,04,41,5.50
2009,04,05,04,42,5.50
2009,04,05,04,43,5.50
2009,04,05,04,44,5.50
2009,04,05,04,45,5.50
2009,04,05,04,46,5.50
2009,04,05,04,47,5.50
2009,04,05,04,48,5.50
2009,04,05,04,49,5.50
2009,04,05,04,50,5.50
2009,04,05,04,51,5.50
2009,04,05,04,52,5.50
2009,04,05,04,53,5.50
2009,04,05,04,54,5.50
2009,04,05,04,55,5.40
2009,04,05,04,56,5.40
2009,04,05,04,57,5.40
2009,04,05,04,58,5.40
2009,04,05,04,59,5.40
2009,04,05,05,00,5.40
2009,04,05,05,01,5.40
2009,04,05,05,02,5.40
2009,04,05,05,03,5.40
2009,04,05,05,04,5.40
2009,04,05,05,05,5.40
2009,04,05,05,06,5.40
2009,04,05,05,07,5.40
2009,04,05,05,08,5.40
2009,04,05,05,09,5.40
2009,04,05,05,10,5.40
2009,04,05,05,11,5.40
2009,04,05,05,12,5.40
2009,04,05,05,13,5.40
2009,04,05,05,14,5.40
2009,04,05,05,15,5.40
2009,04,05,05,16,5.40
2009,04,05,05,17,5.40
2009,04,05,05,18,5.40
2009,04,05,05,19,5.40
2009,04,05,05,20,5.50
2009,04,05,05,21,5.50
2009,04,05,05,22,5.50
2009,04,05,05,23,5.50
2009,04,05,05,24,5.60
2009,04,05,05,25,5.60
2009,04,05,05,26,5.60
2009,04,05,05,27,5.60
2009,04,05,05,28,5.60
2009,04,05,05,29,5.60
2009,04,05,05,30,5.60
2009,04,05,05,31,5.60
2009,04,05,05,32,5.60
2009,04,05,05,33,5.60
2009,04,05,05,34,5.60
2009,04,05,05,35,5.60
2009,04,05,05,36,5.60
2009,04,05,05,37,5.60
2009,04,05,05,38,5.60
2009,04,05,05,39,5.60
2009,04,05,05,40,5.60
2009,04,05,05,41,5.60
2009,04,05,05,42,5.60
2009,04,05,05,43,5.50
2009,04,05,05,44,5.50
2009,04,05,05,45,5.50
2009,04,05,05,46,5.50
2009,04,05,05,47,5.50
2009,04,05,05,48,5.50
2009,04,05,05,49,5.50
2009,04,05,05,50,5.50
2009,04,05,05,51,5.40
2009,04,05,05,52,5.40
2009,04,05,05,53,5.40
2009,04,05,05,54,5.40
2009,04,05,05,55,5.40
2009,04,05,05,56,5.40
2009,04,05,05,57,5.40
2009,04,05,05,58,5.40
2009,04,05,05,59,5.40
2009,04,05,06,00,5.40
2009,04,05,06,01,5.40
2009,04,05,06,02,5.40
2009,04,05,06,03,5.40
2009,04,05,06,04,5.40
2009,04,05,06,05,5.40
2009,04,05,06,06,5.40
2009,04,05,06,07,5.40
2009,04,05,06,08,5.40
2009,04,05,06,09,5.40
2009,04,05,06,10,5.30
2009,04,05,06,11,5.30
2009,04,05,06,12,5.30
2009,04,05,06,13,5.30
2009,04,05,06,14,5.30
2009,04,05,06,15,5.30
2009,04,05,06,16,5.30
2009,04,05,06,17,5.20
2009,04,05,06,18,5.20
2009,04,05,06,19,5.20
2009,04,05,06,20,5.20
2009,04,05,06,21,5.20
2009,04,05,06,22,5.20
2009,04,05,06,23,5.30
2009,04,05,06,24,5.30
2009,04,05,06,25,5.30
2009,04,05,06,26,5.30
2009,04,05,06,27,5.30
2009,04,05,06,28,5.20
2009,04,05,06,29,5.20
2009,04,05,06,30,5.20
2009,04,05,06,31,5.20
2009,04,05,06,32,5.30
2009,04,05,06,33,5.30
2009,04,05,06,34,5.30
2009,04,05,06,35,5.30
2009,04,05,06,36,5.40
2009,04,05,06,37,5.40
2009,04,05,06,38,5.40
2009,04,05,06,39,5.40
2009,04,05,06,40,5.40
2009,04,05,06,41,5.40
2009,04,05,06,42,5.40
2009,04,05,06,43,5.40
2009,04,05,06,44,5.40
2009,04,05,06,45,5.50
2009,04,05,06,46,5.50
2009,04,05,06,47,5.60
2009,04,05,06,48,5.60
2009,04,05,06,49,5.70
2009,04,05,06,50,5.70
2009,04,05,06,51,5.70
2009,04,05,06,52,5.70
2009,04,05,06,53,5.70
2009,04,05,06,54,5.70
2009,04,05,06,55,5.80
2009,04,05,06,56,5.80
2009,04,05,06,57,5.80
2009,04,05,06,58,5.80
2009,04,05,06,59,5.90
2009,04,05,07,00,5.90
2009,04,05,07,01,5.90
2009,04,05,07,02,5.90
2009,04,05,07,03,5.90
2009,04,05,07,04,5.90
2009,04,05,07,05,6.00
2009,04,05,07,06,6.00
2009,04,05,07,07,6.00
2009,04,05,07,08,6.10
2009,04,05,07,09,6.10
2009,04,05,07,10,6.10
2009,04,05,07,11,6.10
2009,04,05,07,12,6.20
2009,04,05,07,13,6.20
2009,04,05,07,14,6.20
2009,04,05,07,15,6.20
2009,04,05,07,16,6.20
2009,04,05,07,17,6.20
2009,04,05,07,18,6.30
2009,04,05,07,19,6.30
2009,04,05,07,20,6.30
2009,04,05,07,21,6.30
2009,04,05,07,22,6.30
2009,04,05,07,23,6.30
2009,04,05,07,24,6.40
2009,04,05,07,25,6.40
2009,04,05,07,26,6.40
2009,04,05,07,27,6.40
2009,04,05,07,28,6.50
2009,04,05,07,29,6.50
2009,04,05,07,30,6.50
2009,04,05,07,31,6.50
2009,04,05,07,32,6.50
2009,04,05,07,33,6.50
2009,04,05,07,34,6.50
2009,04,05,07,35,6.50
2009,04,05,07,36,6.50
2009,04,05,07,37,6.50
2009,04,05,07,38,6.50
2009,04,05,07,39,6.50
2009,04,05,07,40,6.50
2009,04,05,07,41,6.50
2009,04,05,07,42,6.40
2009,04,05,07,43,6.40
2009,04,05,07,44,6.40
2009,04,05,07,45,6.40
2009,04,05,07,46,6.40
2009,04,05,07,47,6.40
2009,04,05,07,48,6.40
2009,04,05,07,49,6.40
2009,04,05,07,50,6.40
2009,04,05,07,51,6.40
2009,04,05,07,52,6.40
2009,04,05,07,53,6.40
2009,04,05,07,54,6.40
2009,04,05,07,55,6.40
2009,04,05,07,56,6.30
2009,04,05,07,57,6.30
2009,04,05,07,58,6.30
2009,04,05,07,59,6.30
2009,04,05,08,00,6.20
2009,04,05,08,01,6.20
2009,04,05,08,02,6.20
2009,04,05,08,03,6.30
2009,04,05,08,04,6.30
2009,04,05,08,05,6.30
2009,04,05,08,06,6.30
2009,04,05,08,07,6.30
2009,04,05,08,08,6.40
2009,04,05,08,09,6.40
2009,04,05,08,10,6.40
2009,04,05,08,11,6.50
2009,04,05,08,12,6.50
2009,04,05,08,13,6.50
2009,04,05,08,14,6.60
2009,04,05,08,15,6.60
2009,04,05,08,16,6.70
2009,04,05,08,17,6.70
2009,04,05,08,18,6.70
2009,04,05,08,19,6.80
2009,04,05,08,20,6.90
2009,04,05,08,21,6.90
2009,04,05,08,22,6.90
2009,04,05,08,23,6.90
2009,04,05,08,24,6.90
2009,04,05,08,25,6.90
2009,04,05,08,26,6.90
2009,04,05,08,27,6.80
2009,04,05,08,28,6.80
2009,04,05,08,29,6.80
2009,04,05,08,30,6.80
2009,04,05,08,31,6.80
2009,04,05,08,32,6.90
2009,04,05,08,33,6.90
2009,04,05,08,34,6.90
2009,04,05,08,35,6.90
2009,04,05,08,36,6.90
2009,04,05,08,37,6.90
2009,04,05,08,38,6.90
2009,04,05,08,39,6.90
2009,04,05,08,40,6.90
2009,04,05,08,41,6.90
2009,04,05,08,42,7.00
2009,04,05,08,43,7.00
2009,04,05,08,44,7.10
2009,04,05,08,45,7.10
2009,04,05,08,46,7.20
2009,04,05,08,47,7.20
2009,04,05,08,48,7.20
2009,04,05,08,49,7.20
2009,04,05,08,50,7.20
2009,04,05,08,51,7.20
2009,04,05,08,52,7.20
2009,04,05,08,53,7.20
2009,04,05,08,54,7.20
2009,04,05,08,55,7.20
2009,04,05,08,56,7.20
2009,04,05,08,57,7.20
2009,04,05,08,58,7.20
2009,04,05,08,59,7.20
2009,04,05,09,00,7.20
2009,04,05,09,01,7.20
2009,04,05,09,02,7.20
2009,04,05,09,03,7.30
2009,04,05,09,04,7.30
2009,04,05,09,05,7.30
2009,04,05,09,06,7.30
2009,04,05,09,07,7.40
2009,04,05,09,08,7.40
2009,04,05,09,09,7.40
2009,04,05,09,10,7.30
2009,04,05,09,11,7.30
2009,04,05,09,12,7.30
2009,04,05,09,13,7.30
2009,04,05,09,14,7.40
2009,04,05,09,15,7.40
2009,04,05,09,16,7.50
2009,04,05,09,17,7.50
2009,04,05,09,18,7.60
2009,04,05,09,19,7.70
2009,04,05,09,20,7.70
2009,04,05,09,21,7.70
2009,04,05,09,22,7.70
2009,04,05,09,23,7.70
2009,04,05,09,24,7.70
2009,04,05,09,25,7.70
2009,04,05,09,26,7.70
2009,04,05,09,27,7.70
2009,04,05,09,28,7.70
2009,04,05,09,29,7.80
2009,04,05,09,30,7.80
2009,04,05,09,31,7.80
2009,04,05,09,32,7.70
2009,04,05,09,33,7.70
2009,04,05,09,34,7.70
2009,04,05,09,35,7.80
2009,04,05,09,36,7.80
2009,04,05,09,37,7.80
2009,04,05,09,38,7.80
2009,04,05,09,39,7.90
2009,04,05,09,40,7.90
2009,04,05,09,41,8.00
2009,04,05,09,42,8.00
2009,04,05,09,43,8.10
2009,04,05,09,44,8.10
2009,04,05,09,45,8.10
2009,04,05,09,46,8.10
2009,04,05,09,47,8.10
2009,04,05,09,48,8.10
2009,04,05,09,49,8.10
2009,04,05,09,50,8.20
2009,04,05,09,51,8.30
2009,04,05,09,52,8.30
2009,04,05,09,53,8.40
2009,04,05,09,54,8.40
2009,04,05,09,55,8.40
2009,04,05,09,56,8.40
2009,04,05,09,57,8.40
2009,04,05,09,58,8.40
2009,04,05,09,59,8.40
2009,04,05,10,00,8.50
2009,04,05,10,01,8.50
2009,04,05,10,02,8.50
2009,04,05,10,03,8.60
2009,04,05,10,04,8.70
2009,04,05,10,05,8.80
2009,04,05,10,06,8.80
2009,04,05,10,07,8.90
2009,04,05,10,08,8.90
2009,04,05,10,09,9.00
2009,04,05,10,10,9.00
2009,04,05,10,11,9.00
2009,04,05,10,12,9.10
2009,04,05,10,13,9.20
2009,04,05,10,14,9.20
2009,04,05,10,15,9.20
2009,04,05,10,16,9.30
2009,04,05,10,17,9.40
2009,04,05,10,18,9.40
2009,04,05,10,19,9.50
2009,04,05,10,20,9.50
2009,04,05,10,21,9.50
2009,04,05,10,22,9.50
2009,04,05,10,23,9.60
2009,04,05,10,24,9.60
2009,04,05,10,25,9.60
2009,04,05,10,26,9.60
2009,04,05,10,27,9.60
2009,04,05,10,28,9.70
2009,04,05,10,29,9.70
2009,04,05,10,30,9.70
2009,04,05,10,31,9.80
2009,04,05,10,32,9.80
2009,04,05,10,33,9.70
2009,04,05,10,34,9.70
2009,04,05,10,35,9.70
2009,04,05,10,36,9.70
2009,04,05,10,37,9.80
2009,04,05,10,38,9.80
2009,04,05,10,39,9.80
2009,04,05,10,40,9.90
2009,04,05,10,41,9.90
2009,04,05,10,42,9.90
2009,04,05,10,43,9.90
2009,04,05,10,44,9.90
2009,04,05,10,45,9.90
2009,04,05,10,46,9.90
2009,04,05,10,47,9.90
2009,04,05,10,48,9.90
2009,04,05,10,49,9.90
2009,04,05,10,50,10.10
2009,04,05,10,51,10.10
2009,04,05,10,52,10.10
2009,04,05,10,53,10.00
2009,04,05,10,54,10.00
2009,04,05,10,55,9.90
2009,04,05,10,56,9.90
2009,04,05,10,57,10.00
2009,04,05,10,58,10.10
2009,04,05,10,59,10.10
2009,04,05,11,00,10.10
2009,04,05,11,01,10.10
2009,04,05,11,02,10.10
2009,04,05,11,03,10.10
2009,04,05,11,04,10.20
2009,04,05,11,05,10.30
2009,04,05,11,06,10.30
2009,04,05,11,07,10.30
2009,04,05,11,08,10.40
2009,04,05,11,09,10.60
2009,04,05,11,10,10.70
2009,04,05,11,11,10.80
2009,04,05,11,12,10.80
2009,04,05,11,13,11.00
2009,04,05,11,14,11.10
2009,04,05,11,15,11.00
2009,04,05,11,16,11.00
2009,04,05,11,17,11.00
2009,04,05,11,18,11.00
2009,04,05,11,19,10.90
2009,04,05,11,20,10.90
2009,04,05,11,21,10.90
2009,04,05,11,22,11.00
2009,04,05,11,23,11.10
2009,04,05,11,24,11.20
2009,04,05,11,25,11.20
2009,04,05,11,26,11.10
2009,04,05,11,27,11.10
2009,04,05,11,28,11.30
2009,04,05,11,29,11.30
2009,04,05,11,30,11.30
2009,04,05,11,31,11.40
2009,04,05,11,32,11.40
2009,04,05,11,33,11.40
2009,04,05,11,34,11.30
2009,04,05,11,35,11.30
2009,04,05,11,36,11.20
2009,04,05,11,37,11.20
2009,04,05,11,38,11.20
2009,04,05,11,39,11.20
2009,04,05,11,40,11.10
2009,04,05,11,41,11.10
2009,04,05,11,42,11.20
2009,04,05,11,43,11.20
2009,04,05,11,44,11.20
2009,04,05,11,45,11.20
2009,04,05,11,46,11.30
2009,04,05,11,47,11.30
2009,04,05,11,48,11.30
2009,04,05,11,49,11.10
2009,04,05,11,50,11.10
2009,04,05,11,51,11.00
2009,04,05,11,52,11.00
2009,04,05,11,53,11.00
2009,04,05,11,54,11.00
2009,04,05,11,55,11.00
2009,04,05,11,56,11.00
2009,04,05,11,57,11.10
2009,04,05,11,58,11.10
2009,04,05,11,59,11.20
2009,04,05,12,00,11.20
2009,04,05,12,01,11.30
2009,04,05,12,02,11.40
2009,04,05,12,03,11.40
2009,04,05,12,04,11.40
2009,04,05,12,05,11.50
2009,04,05,12,06,11.60
2009,04,05,12,07,11.70
2009,04,05,12,08,11.70
2009,04,05,12,09,11.70
2009,04,05,12,10,11.80
2009,04,05,12,11,11.80
2009,04,05,12,12,11.70
2009,04,05,12,13,11.60
2009,04,05,12,14,11.60
2009,04,05,12,15,11.60
2009,04,05,12,16,11.60
2009,04,05,12,17,11.70
2009,04,05,12,18,11.80
2009,04,05,12,19,11.90
2009,04,05,12,20,12.00
2009,04,05,12,21,12.10
2009,04,05,12,22,12.10
2009,04,05,12,23,12.10
2009,04,05,12,24,12.10
2009,04,05,12,25,12.10
2009,04,05,12,26,12.00
2009,04,05,12,27,12.00
2009,04,05,12,28,11.90
2009,04,05,12,29,12.00
2009,04,05,12,30,11.90
2009,04,05,12,31,11.80
2009,04,05,12,32,11.90
2009,04,05,12,33,12.00
2009,04,05,12,34,12.00
2009,04,05,12,35,12.10
2009,04,05,12,36,12.10
2009,04,05,12,37,12.10
2009,04,05,12,38,12.00
2009,04,05,12,39,12.00
2009,04,05,12,40,12.10
2009,04,05,12,41,12.20
2009,04,05,12,42,12.30
2009,04,05,12,43,12.30
2009,04,05,12,44,12.40
2009,04,05,12,45,12.40
2009,04,05,12,46,12.40
2009,04,05,12,47,12.50
2009,04,05,12,48,12.50
2009,04,05,12,49,12.50
2009,04,05,12,50,12.50
2009,04,05,12,51,12.40
2009,04,05,12,52,12.50
2009,04,05,12,53,12.50
2009,04,05,12,54,12.50
2009,04,05,12,55,12.50
2009,04,05,12,56,12.40
2009,04,05,12,57,12.30
2009,04,05,12,58,12.20
2009,04,05,12,59,12.20
2009,04,05,13,00,12.10
2009,04,05,13,01,12.10
2009,04,05,13,02,12.10
2009,04,05,13,03,12.10
2009,04,05,13,04,12.20
2009,04,05,13,05,12.30
2009,04,05,13,06,12.30
2009,04,05,13,07,12.30
2009,04,05,13,08,12.30
2009,04,05,13,09,12.20
2009,04,05,13,10,12.20
2009,04,05,13,11,12.20
2009,04,05,13,12,12.30
2009,04,05,13,13,12.40
2009,04,05,13,14,12.60
2009,04,05,13,15,12.70
2009,04,05,13,16,12.80
2009,04,05,13,17,12.90
2009,04,05,13,18,12.90
2009,04,05,13,19,12.90
2009,04,05,13,20,12.90
2009,04,05,13,21,12.90
2009,04,05,13,22,13.00
2009,04,05,13,23,13.10
2009,04,05,13,24,13.10
2009,04,05,13,25,13.10
2009,04,05,13,26,13.10
2009,04,05,13,27,13.10
2009,04,05,13,28,13.20
2009,04,05,13,29,13.20
2009,04,05,13,30,13.20
2009,04,05,13,31,13.20
2009,04,05,13,32,13.00
2009,04,05,13,33,12.90
2009,04,05,13,34,12.90
2009,04,05,13,35,12.90
2009,04,05,13,36,12.90
2009,04,05,13,37,12.80
2009,04,05,13,38,12.80
2009,04,05,13,39,12.80
2009,04,05,13,40,12.70
2009,04,05,13,41,12.70
2009,04,05,13,42,12.70
2009,04,05,13,43,12.60
2009,04,05,13,44,12.50
2009,04,05,13,45,12.50
2009,04,05,13,46,12.40
2009,04,05,13,47,12.30
2009,04,05,13,48,12.30
2009,04,05,13,49,12.30
2009,04,05,13,50,12.40
2009,04,05,13,51,12.50
2009,04,05,13,52,12.50
2009,04,05,13,53,12.50
2009,04,05,13,54,12.60
2009,04,05,13,55,12.70
2009,04,05,13,56,12.80
2009,04,05,13,57,12.80
2009,04,05,13,58,12.80
2009,04,05,13,59,12.80
2009,04,05,14,00,12.90
2009,04,05,14,01,12.80
2009,04,05,14,02,12.80
2009,04,05,14,03,12.80
2009,04,05,14,04,12.80
2009,04,05,14,05,12.90
2009,04,05,14,06,12.90
2009,04,05,14,07,12.90
2009,04,05,14,08,12.90
2009,04,05,14,09,12.90
2009,04,05,14,10,13.00
2009,04,05,14,11,13.00
2009,04,05,14,12,13.00
2009,04,05,14,13,12.90
2009,04,05,14,14,12.90
2009,04,05,14,15,13.00
2009,04,05,14,16,13.00
2009,04,05,14,17,13.00
2009,04,05,14,18,13.10
2009,04,05,14,19,13.00
2009,04,05,14,20,13.00
2009,04,05,14,21,12.90
2009,04,05,14,22,12.80
2009,04,05,14,23,12.80
2009,04,05,14,24,12.70
2009,04,05,14,25,12.80
2009,04,05,14,26,12.80
2009,04,05,14,27,12.90
2009,04,05,14,28,13.00
2009,04,05,14,29,13.00
2009,04,05,14,30,13.10
2009,04,05,14,31,13.10
2009,04,05,14,32,13.10
2009,04,05,14,33,13.10
2009,04,05,14,34,13.10
2009,04,05,14,35,13.10
2009,04,05,14,36,13.10
2009,04,05,14,37,13.10
2009,04,05,14,38,13.00
2009,04,05,14,39,13.00
2009,04,05,14,40,12.90
2009,04,05,14,41,12.90
2009,04,05,14,42,12.90
2009,04,05,14,43,12.90
2009,04,05,14,44,12.90
2009,04,05,14,45,12.90
2009,04,05,14,46,12.90
2009,04,05,14,47,13.00
2009,04,05,14,48,13.10
2009,04,05,14,49,13.20
2009,04,05,14,50,13.30
2009,04,05,14,51,13.40
2009,04,05,14,52,13.60
2009,04,05,14,53,13.60
2009,04,05,14,54,13.60
2009,04,05,14,55,13.60
2009,04,05,14,56,13.60
2009,04,05,14,57,13.70
2009,04,05,14,58,13.80
2009,04,05,14,59,13.80
2009,04,05,15,00,13.90
2009,04,05,15,01,13.90
2009,04,05,15,02,13.80
2009,04,05,15,03,13.80
2009,04,05,15,04,13.70
2009,04,05,15,05,13.70
2009,04,05,15,06,13.60
2009,04,05,15,07,13.60
2009,04,05,15,08,13.60
2009,04,05,15,09,13.70
2009,04,05,15,10,13.70
2009,04,05,15,11,13.70
2009,04,05,15,12,13.70
2009,04,05,15,13,13.70
2009,04,05,15,14,13.70
2009,04,05,15,15,13.80
2009,04,05,15,16,13.80
2009,04,05,15,17,13.80
2009,04,05,15,18,13.90
2009,04,05,15,19,14.00
2009,04,05,15,20,14.00
2009,04,05,15,21,14.00
2009,04,05,15,22,14.10
2009,04,05,15,23,14.10
2009,04,05,15,24,14.10
2009,04,05,15,25,14.00
2009,04,05,15,26,14.00
2009,04,05,15,27,13.90
2009,04,05,15,28,13.90
2009,04,05,15,29,13.90
2009,04,05,15,30,13.90
2009,04,05,15,31,13.90
2009,04,05,15,32,14.00
2009,04,05,15,33,14.10
2009,04,05,15,34,14.10
2009,04,05,15,35,14.10
2009,04,05,15,36,14.10
2009,04,05,15,37,14.10
2009,04,05,15,38,14.10
2009,04,05,15,39,14.00
2009,04,05,15,40,14.00
2009,04,05,15,41,14.00
2009,04,05,15,42,14.10
2009,04,05,15,43,14.10
2009,04,05,15,44,14.10
2009,04,05,15,45,14.20
2009,04,05,15,46,14.20
2009,04,05,15,47,14.20
2009,04,05,15,48,14.20
2009,04,05,15,49,14.20
2009,04,05,15,50,14.20
2009,04,05,15,51,14.20
2009,04,05,15,52,14.20
2009,04,05,15,53,14.20
2009,04,05,15,54,14.20
2009,04,05,15,55,14.20
2009,04,05,15,56,14.20
2009,04,05,15,57,14.20
2009,04,05,15,58,14.20
2009,04,05,15,59,14.20
2009,04,05,16,00,14.20
2009,04,05,16,01,14.30
2009,04,05,16,02,14.30
2009,04,05,16,03,14.30
2009,04,05,16,04,14.30
2009,04,05,16,05,14.40
2009,04,05,16,06,14.30
2009,04,05,16,07,14.30
2009,04,05,16,08,14.30
2009,04,05,16,09,14.30
2009,04,05,16,10,14.30
2009,04,05,16,11,14.30
2009,04,05,16,12,14.30
2009,04,05,16,13,14.30
2009,04,05,16,14,14.30
2009,04,05,16,15,14.40
2009,04,05,16,16,14.40
2009,04,05,16,17,14.40
2009,04,05,16,18,14.30
2009,04,05,16,19,14.30
2009,04,05,16,20,14.40
2009,04,05,16,21,14.40
2009,04,05,16,22,14.40
2009,04,05,16,23,14.50
2009,04,05,16,24,14.50
2009,04,05,16,25,14.50
2009,04,05,16,26,14.40
2009,04,05,16,27,14.40
2009,04,05,16,28,14.30
2009,04,05,16,29,14.30
2009,04,05,16,30,14.40
2009,04,05,16,31,14.40
2009,04,05,16,32,14.50
2009,04,05,16,33,14.50
2009,04,05,16,34,14.60
2009,04,05,16,35,14.60
2009,04,05,16,36,14.60
2009,04,05,16,37,14.50
2009,04,05,16,38,14.40
2009,04,05,16,39,14.40
2009,04,05,16,40,14.30
2009,04,05,16,41,14.30
2009,04,05,16,42,14.30
2009,04,05,16,43,14.40
2009,04,05,16,44,14.40
2009,04,05,16,45,14.40
2009,04,05,16,46,14.50
2009,04,05,16,47,14.40
2009,04,05,16,48,14.40
2009,04,05,16,49,14.40
2009,04,05,16,50,14.40
2009,04,05,16,51,14.30
2009,04,05,16,52,14.30
2009,04,05,16,53,14.30
2009,04,05,16,54,14.40
2009,04,05,16,55,14.40
2009,04,05,16,56,14.30
2009,04,05,16,57,14.30
2009,04,05,16,58,14.30
2009,04,05,16,59,14.30
2009,04,05,17,00,14.30
2009,04,05,17,01,14.30
2009,04,05,17,02,14.30
2009,04,05,17,03,14.40
2009,04,05,17,04,14.40
2009,04,05,17,05,14.50
2009,04,05,17,06,14.50
2009,04,05,17,07,14.50
2009,04,05,17,08,14.60
2009,04,05,17,09,14.60
2009,04,05,17,10,14.60
2009,04,05,17,11,14.60
2009,04,05,17,12,14.60
2009,04,05,17,13,14.60
2009,04,05,17,14,14.50
2009,04,05,17,15,14.50
2009,04,05,17,16,14.50
2009,04,05,17,17,14.50
2009,04,05,17,18,14.50
2009,04,05,17,19,14.50
2009,04,05,17,20,14.50
2009,04,05,17,21,14.40
2009,04,05,17,22,14.50
2009,04,05,17,23,14.50
2009,04,05,17,24,14.50
2009,04,05,17,25,14.40
2009,04,05,17,26,14.40
2009,04,05,17,27,14.40
2009,04,05,17,28,14.40
2009,04,05,17,29,14.40
2009,04,05,17,30,14.40
2009,04,05,17,31,14.40
2009,04,05,17,32,14.40
2009,04,05,17,33,14.40
2009,04,05,17,34,14.30
2009,04,05,17,35,14.30
2009,04,05,17,36,14.30
2009,04,05,17,37,14.30
2009,04,05,17,38,14.30
2009,04,05,17,39,14.30
2009,04,05,17,40,14.30
2009,04,05,17,41,14.30
2009,04,05,17,42,14.30
2009,04,05,17,43,14.30
2009,04,05,17,44,14.30
2009,04,05,17,45,14.30
2009,04,05,17,46,14.30
2009,04,05,17,47,14.20